Weather in Znamenka

Russia / Amur Oblast     50°37′21″N   129°03′17″E
temp.,
°C
wind,
m/s
gust,
m/s
humid.,
%
clouds,
%
prec.,
mm/h
press.,
hPa
HPBL,
m
12 april, mon
mon1200:00−1ne71138100 0.0 1023658
03:00−2nne71049100 0.4 1022694
06:00−4ne71289100 1.4 1020629
09:00−4ne81369100 2.4 1018707
12:00−4nne91369100 1.7 1016872
15:00−5n91374100 3.8 1015956
18:00−5n91358100 0.1 1015993
21:00−5n81457100 0.1 1016742
13 april, tue
tue1300:00−7nnw71463100 0.0 1015609
03:00−8nw5127453 0.0 1014458
06:00−9nw6127715 0.0 1013444
09:00−6nw71063100 0.0 10111129
12:00−3nnw7952100 0.1 10092012
15:00−2nnw71040100 0.1 10072603
18:00−2nnw71044100 0.1 1007908
21:00−5nw6125426 0.1 1008342
14 april, wed
wed1400:00−7nw410635 0.0 1007266
03:00−7wnw5127225 0.0 1007373
06:00−8nw5108037 0.0 1008357
09:00−5nnw5756100 0.0 10081079
12:00−1nw5841100 0.1 10082127
15:00+1nw5729100 0.1 10072403
18:00+1nw46327 0.0 1008350
21:00−4sw356996 0.0 101085
15 april, thu
thu1500:00−5sw238498 0.0 101039
03:00−5sw11804 0.0 101110
06:00−6se11794 0.0 101111
09:00−1se33555 0.0 1012342
12:00+3se4447100 0.0 1011875
15:00+4se5643100 0.0 10091099
18:00+4e5956100 0.0 1008723
21:00+1e81484100 0.7 1006553
16 april, fri
fri1600:00+2ese102171100 0.0 1002838
03:00+2se112166100 0.2 999745
06:00+2se91966100 0.0 999761
09:00+5se91659100 0.0 10001089
12:00+4se81392100 0.6 1001957
15:00+3se5996100 1.2 1002536
18:00+4se5684100 0.1 1003601
21:00+2ese4695100 0.1 1005344